Time,TemperatureF,DewpointF,PressureIn,WindDirection,WindDirectionDegrees,WindSpeedMPH,WindSpeedGustMPH,Humidity,HourlyPrecipIn,Conditions,Clouds,dailyrainin,SolarRadiationWatts/m^2,SoftwareType,DateUTC
2015-07-28 00:00:00,83.0,68.6,29.86,South,180,0.0,0.0,62,0.00,,,0.00,0,Wunderground v.1.15,2015-07-28 05:00:00,
2015-07-28 00:10:00,82.4,68.5,29.86,South,170,0.0,0.0,63,0.00,,,0.00,0,Wunderground v.1.15,2015-07-28 05:10:00,
2015-07-28 00:20:00,82.3,68.4,29.85,South,184,0.0,0.0,63,0.00,,,0.00,0,Wunderground v.1.15,2015-07-28 05:20:00,
2015-07-28 00:25:00,82.3,68.4,29.85,South,170,0.0,0.0,63,0.00,,,0.00,0,Wunderground v.1.15,2015-07-28 05:25:00,
2015-07-28 00:30:00,82.4,68.5,29.85,South,170,0.0,0.0,63,0.00,,,0.00,0,Wunderground v.1.15,2015-07-28 05:30:00,
2015-07-28 00:35:00,82.5,68.6,29.85,South,170,0.0,0.0,63,0.00,,,0.00,0,Wunderground v.1.15,2015-07-28 05:35:00,
2015-07-28 00:45:00,82.6,68.7,29.85,South,175,0.0,0.0,63,0.00,,,0.00,0,Wunderground v.1.15,2015-07-28 05:45:00,
2015-07-28 00:50:00,82.8,68.9,29.85,South,188,0.0,0.0,63,0.00,,,0.00,0,Wunderground v.1.15,2015-07-28 05:50:00,
2015-07-28 00:55:00,82.8,68.9,29.84,SSW,199,0.0,0.0,63,0.00,,,0.00,0,Wunderground v.1.15,2015-07-28 05:55:00,
2015-07-28 01:00:00,82.7,68.8,29.85,South,170,0.0,0.0,63,0.00,,,0.00,0,Wunderground v.1.15,2015-07-28 06:00:00,
2015-07-28 01:10:00,82.6,68.7,29.85,SSW,192,0.0,0.0,63,0.00,,,0.00,0,Wunderground v.1.15,2015-07-28 06:10:00,
2015-07-28 01:15:00,82.3,68.4,29.85,South,188,0.0,0.0,63,0.00,,,0.00,0,Wunderground v.1.15,2015-07-28 06:15:00,
2015-07-28 01:20:00,82.3,68.9,29.85,SSW,210,0.0,0.0,64,0.00,,,0.00,0,Wunderground v.1.15,2015-07-28 06:20:00,
2015-07-28 01:30:00,82.0,68.6,29.85,SSW,198,0.0,0.0,64,0.00,,,0.00,0,Wunderground v.1.15,2015-07-28 06:30:00,
2015-07-28 01:35:00,82.0,69.1,29.84,SSE,165,0.0,0.0,65,0.00,,,0.00,0,Wunderground v.1.15,2015-07-28 06:35:00,
2015-07-28 01:40:00,82.0,69.1,29.84,South,170,0.0,0.0,65,0.00,,,0.00,0,Wunderground v.1.15,2015-07-28 06:40:00,
2015-07-28 01:55:00,81.9,69.0,29.84,South,170,0.0,0.0,65,0.00,,,0.00,0,Wunderground v.1.15,2015-07-28 06:55:00,
2015-07-28 02:00:00,81.8,68.9,29.84,South,170,0.0,0.0,65,0.00,,,0.00,0,Wunderground v.1.15,2015-07-28 07:00:00,
2015-07-28 02:10:00,81.9,69.4,29.84,South,175,0.0,0.0,66,0.00,,,0.00,0,Wunderground v.1.15,2015-07-28 07:10:00,
2015-07-28 02:15:00,82.0,69.5,29.84,South,170,0.0,0.0,66,0.00,,,0.00,0,Wunderground v.1.15,2015-07-28 07:15:00,
2015-07-28 02:20:00,81.9,69.4,29.84,South,187,0.0,0.0,66,0.00,,,0.00,0,Wunderground v.1.15,2015-07-28 07:20:00,
2015-07-28 02:30:00,81.8,69.3,29.84,SSW,194,0.0,0.0,66,0.00,,,0.00,0,Wunderground v.1.15,2015-07-28 07:30:00,
2015-07-28 02:40:00,81.4,69.4,29.83,SSW,203,0.0,0.0,67,0.00,,,0.00,0,Wunderground v.1.15,2015-07-28 07:40:00,
2015-07-28 02:45:00,81.2,69.6,29.83,South,189,0.0,0.0,68,0.00,,,0.00,0,Wunderground v.1.15,2015-07-28 07:45:00,
2015-07-28 02:50:00,81.1,69.5,29.83,SSW,194,0.0,0.0,68,0.00,,,0.00,0,Wunderground v.1.15,2015-07-28 07:50:00,
2015-07-28 03:00:00,80.7,69.6,29.83,South,175,0.0,0.0,69,0.00,,,0.00,0,Wunderground v.1.15,2015-07-28 08:00:00,
2015-07-28 03:10:00,80.6,69.5,29.83,South,170,0.0,2.0,69,0.00,,,0.00,0,Wunderground v.1.15,2015-07-28 08:10:00,
2015-07-28 03:15:00,80.6,69.5,29.83,SSE,163,0.0,2.0,69,0.00,,,0.00,0,Wunderground v.1.15,2015-07-28 08:15:00,
2015-07-28 03:20:00,80.6,69.5,29.83,SSE,148,0.0,2.0,69,0.00,,,0.00,0,Wunderground v.1.15,2015-07-28 08:20:00,
2015-07-28 03:25:00,80.5,69.4,29.83,SSE,153,0.0,2.0,69,0.00,,,0.00,0,Wunderground v.1.15,2015-07-28 08:25:00,
2015-07-28 03:35:00,80.1,69.4,29.82,South,188,0.0,2.0,70,0.00,,,0.00,0,Wunderground v.1.15,2015-07-28 08:35:00,
2015-07-28 03:45:00,79.8,69.6,29.82,South,187,0.0,2.0,71,0.00,,,0.00,0,Wunderground v.1.15,2015-07-28 08:45:00,
2015-07-28 03:50:00,79.7,69.5,29.82,South,184,0.0,2.0,71,0.00,,,0.00,0,Wunderground v.1.15,2015-07-28 08:50:00,
2015-07-28 03:55:00,79.6,69.8,29.82,SSW,201,0.0,2.0,72,0.00,,,0.00,0,Wunderground v.1.15,2015-07-28 08:55:00,
2015-07-28 04:00:00,79.6,69.8,29.82,SSW,203,0.0,0.0,72,0.00,,,0.00,0,Wunderground v.1.15,2015-07-28 09:00:00,
2015-07-28 04:10:00,79.6,69.8,29.83,South,180,0.0,4.0,72,0.00,,,0.00,0,Wunderground v.1.15,2015-07-28 09:10:00,
2015-07-28 04:15:00,79.5,69.7,29.83,SSW,205,0.0,4.0,72,0.00,,,0.00,0,Wunderground v.1.15,2015-07-28 09:15:00,
2015-07-28 04:20:00,79.4,69.6,29.83,South,186,0.0,4.0,72,0.00,,,0.00,0,Wunderground v.1.15,2015-07-28 09:20:00,
2015-07-28 04:30:00,79.3,69.5,29.83,SSW,203,0.0,4.0,72,0.00,,,0.00,0,Wunderground v.1.15,2015-07-28 09:30:00,
2015-07-28 04:35:00,79.3,69.5,29.83,South,191,0.0,4.0,72,0.00,,,0.00,0,Wunderground v.1.15,2015-07-28 09:35:00,
2015-07-28 04:45:00,79.3,69.9,29.83,SSW,209,0.0,4.0,73,0.00,,,0.00,0,Wunderground v.1.15,2015-07-28 09:45:00,
2015-07-28 04:50:00,79.2,69.8,29.84,SSE,165,0.0,4.0,73,0.00,,,0.00,0,Wunderground v.1.15,2015-07-28 09:50:00,
2015-07-28 05:00:00,79.0,69.6,29.83,SSW,194,0.0,4.0,73,0.00,,,0.00,0,Wunderground v.1.15,2015-07-28 10:00:00,
2015-07-28 05:10:00,78.9,69.9,29.84,SSW,201,0.0,4.0,74,0.00,,,0.00,0,Wunderground v.1.15,2015-07-28 10:10:00,
2015-07-28 05:15:00,78.8,69.8,29.84,SSW,207,0.0,4.0,74,0.00,,,0.00,0,Wunderground v.1.15,2015-07-28 10:15:00,
2015-07-28 05:25:00,79.2,70.2,29.84,SSW,198,0.0,4.0,74,0.00,,,0.00,0,Wunderground v.1.15,2015-07-28 10:25:00,
2015-07-28 05:30:00,79.4,70.0,29.84,SSW,211,0.0,4.0,73,0.00,,,0.00,0,Wunderground v.1.15,2015-07-28 10:30:00,
2015-07-28 05:35:00,79.6,70.2,29.84,SSW,208,0.0,4.0,73,0.00,,,0.00,0,Wunderground v.1.15,2015-07-28 10:35:00,
2015-07-28 05:45:00,79.4,70.0,29.84,SSW,195,0.0,7.0,73,0.00,,,0.00,0,Wunderground v.1.15,2015-07-28 10:45:00,
2015-07-28 05:50:00,79.3,70.3,29.84,SSW,193,0.0,4.0,74,0.00,,,0.00,0,Wunderground v.1.15,2015-07-28 10:50:00,
2015-07-28 05:55:00,79.1,70.1,29.84,SSW,207,0.0,4.0,74,0.00,,,0.00,0,Wunderground v.1.15,2015-07-28 10:55:00,
2015-07-28 06:00:00,78.9,69.9,29.85,SSW,208,0.0,0.0,74,0.00,,,0.00,0,Wunderground v.1.15,2015-07-28 11:00:00,
2015-07-28 06:10:00,78.5,69.9,29.85,South,186,0.0,8.0,75,0.00,,,0.00,0,Wunderground v.1.15,2015-07-28 11:10:00,
2015-07-28 06:15:00,78.2,70.0,29.85,SSW,192,0.0,8.0,76,0.00,,,0.00,0,Wunderground v.1.15,2015-07-28 11:15:00,
2015-07-28 06:20:00,78.1,69.9,29.85,SW,218,0.0,8.0,76,0.00,,,0.00,0,Wunderground v.1.15,2015-07-28 11:20:00,
2015-07-28 06:30:00,78.0,70.2,29.85,SSW,192,0.0,8.0,77,0.00,,,0.00,0,Wunderground v.1.15,2015-07-28 11:30:00,
2015-07-28 06:35:00,77.8,70.0,29.86,SSW,197,0.0,8.0,77,0.00,,,0.00,0,Wunderground v.1.15,2015-07-28 11:35:00,